• Processing (Info)

  • MPEC 2023-G87 : 2023 FW14

    The following Minor Planet Electronic Circular may be linked-to from your own Web pages, but must not otherwise be redistributed electronically.

    A form allowing access to any MPEC is at the bottom of this page.


    Read MPEC 2023-G86 Read MPEC 2023-G88


    M.P.E.C. 2023-G87                                Issued 2023 April 15, 13:34 UT
    
         The Minor Planet Electronic Circulars contain information on unusual
             minor planets, routine data on comets and natural satellites,
             and occasional editorial announcements.  They are published
        on behalf of Division F of the International Astronomical Union by the
              Minor Planet Center, Smithsonian Astrophysical Observatory,
                              Cambridge, MA 02138, U.S.A.
    			  
                 Prepared using the Tamkin Foundation Computer Network
    
                                  MPC@CFA.HARVARD.EDU
                URL https://www.minorplanetcenter.net/    ISSN 1523-6714
    
                                    2023 FW14                                
    
    
    Observations:
         K23F14W* C2023 03 18.42337413 08 21.217+07 25 02.79         21.48wUEG087F52
         K23F14W  C2023 03 18.43533613 08 20.079+07 24 57.77         21.39wUEG087F52
         K23F14W  C2023 03 18.44722913 08 18.942+07 24 52.85         21.40wUEG087F52
         K23F14W  C2023 03 18.45917513 08 17.804+07 24 47.75         21.45wUEG087F52
         K23F14W  C2023 03 25.46231412 56 33.345+06 27 05.62         21.38wUEG087F51
         K23F14W  C2023 03 25.47489212 56 31.863+06 26 58.38         21.22wUEG087F51
         K23F14W  C2023 03 25.48749012 56 30.360+06 26 51.27         21.13wUEG087F51
         K23F14W  C2023 04 14.36185812 15 13.954+01 58 07.55         21.36wUEG087F52
         K23F14W  C2023 04 14.37354312 15 12.442+01 57 55.61         21.14wUEG087F52
         K23F14W  C2023 04 14.38525212 15 10.908+01 57 43.38         21.35wUEG087F52
         K23F14W  C2023 04 14.39703012 15 09.380+01 57 31.46         21.51wUEG087F52
         K23F14W KC2023 04 15.17552012 13 35.774+01 44 00.89         20.64GVEG087I52
         K23F14W KC2023 04 15.17959512 13 35.274+01 43 55.92         20.73GVEG087I52
         K23F14W KC2023 04 15.18366712 13 34.705+01 43 51.78         20.48GVEG087I52
    
    Observer details:
    F51 Pan-STARRS 1, Haleakala.  Observers J. Bulger, T. Lowe, A. Schultz, I.
        Smith.  Measurers K. Chambers, S. Chastel, T. de Boer, J. Fairlamb, H.
        Gao, M. Huber, C.-C. Lin, E. Magnier, Y. Ramanjooloo, R. Wainscoat, R.
        Weryk.  1.8-m Ritchey-Chretien + CCD.
    F52 Pan-STARRS 2, Haleakala.  Observers J. Bulger, T. Lowe, A. Schultz, I.
        Smith.  Measurers K. Chambers, S. Chastel, T. de Boer, J. Fairlamb, H.
        Gao, M. Huber, C.-C. Lin, E. Magnier, Y. Ramanjooloo, R. Wainscoat, R.
        Weryk.  1.8-m Ritchey-Chretien + CCD.
    I52 Steward Observatory, Mt. Lemmon Station.  Observer J. B. Fazekas.
        Measurers E. J. Christensen, D. Fay, J. B. Fazekas, D. C. Fuls, A. R.
        Gibbs, A. D. Grauer, H. Groeller, J. K. Hogan, R. A. Kowalski, S. M.
        Larson, G. J. Leonard, D. Rankin, R. L. Seaman, A. Serrano, F. C. Shelly,
        K. W. Wierzchos.  1.0-m prime focus + CCD.
    
    Orbital elements:
    2023 FW14                                                Earth MOID = 0.3325 AU
    Epoch 2023 Feb. 25.0 TT = JDT 2460000.5                 Veres                   
    M 281.23983              (2000.0)            P               Q                  
    n   0.52399266     Peri.  245.29260     -0.05889990     +0.99460077             
    a   1.5237694      Node    21.84890     -0.81271516     +0.00192424             
    e   0.1581380      Incl.   13.27237     -0.57967652     -0.10375744             
    P   1.88           H   21.40          G   0.15           U   6                  
    Residuals in seconds of arc
    230318 F52  0.1+  0.0     230325 F51  0.1+  0.0     230414 F52  0.0   0.1+
    230318 F52  0.0   0.0     230325 F51  0.0   0.1+    230415 I52  0.1-  0.5+
    230318 F52  0.1-  0.0     230414 F52  0.1+  0.0     230415 I52  0.1+  0.2-
    230318 F52  0.0   0.0     230414 F52  0.2+  0.0     230415 I52  0.6-  0.1-
    230325 F51  0.1-  0.0     230414 F52  0.0   0.1-
    
    Ephemeris:
    2023 FW14                a,e,i = 1.52, 0.16, 13                  q = 1.2828
    Date    TT    R. A. (2000) Decl.     Delta      r    Elong.  Phase     V
    2023 03 16    13 11 43.8 +07 41 22   0.5053  1.4723   156.7    15.5    21.6
    ...
    2023 03 31    12 45 39.0 +05 28 17   0.4448  1.4391   170.4     6.7    20.9
    ...
    2023 04 08    12 28 37.4 +03 40 52   0.4297  1.4218   166.1     9.7    21.0
    ...
    2023 04 14    12 15 58.1 +02 04 26   0.4262  1.4091   159.1    14.7    21.1
    2023 04 15    12 13 56.5 +01 47 15   0.4263  1.4070   157.8    15.6    21.1
    2023 04 16    12 11 56.9 +01 29 46   0.4265  1.4049   156.6    16.5    21.2
    ...
    2023 04 22    12 00 54.1 -00 20 19   0.4313  1.3926   149.0    21.8    21.3
    ...
    2023 04 30    11 49 21.7 -02 56 59   0.4457  1.3768   139.5    28.4    21.6
    ...
    2023 05 15    11 39 18.9 -08 02 03   0.4903  1.3493   124.3    38.2    22.0
    
    M. P. C. Staff               (C) Copyright 2023 MPC           M.P.E.C. 2023-G87
    


    Read MPEC 2023-G86 Read MPEC 2023-G88


    MPEC number:

    Enter an MPEC number in one of the following forms:

    • 1997-B01 (the full form)
    • J97B01 (the packed version of the full form)
    • B01 (the abbreviated form)